Regional Weather Roundup
Issued by NWS Midland/Odessa, TX

Home | Current Version | Previous Version | Text Only | Print | Product List | Glossary On
Versions: 1 2 3 4 5 6 7 8 9 10 11 12 13 14 15 16 17 18 19 20 21 22 23 24 25 26 27 28 29 30 31 32 33 34 35 36 37 38 39 40 41 42 43 44 45 46 47 48 49 50
000
ASUS44 KMAF 261410
RWRMAF
MIDLAND AREA WEATHER ROUNDUP
NATIONAL WEATHER SERVICE MIDLAND TX
900 AM CDT TUE JUL 26 2016

...IN SOUTHWEST TEXAS AND SOUTHEAST NEW MEXICO...

CITY           SKY/WX    TMP DP  RH WIND       PRES   REMARKS
ALPINE         SUNNY     78  57  49 NW13      30.23R
ANDREWS        FAIR      76  61  59 N7        30.12R
ARTESIA        MOSUNNY   72  64  78 NW3       30.15S
BIG SPRING     CLOUDY    81  67  62 CALM      30.09S
CARLSBAD       CLOUDY    78  61  55 NW10      30.12S
DRYDEN           N/A     80  70  71 N6        30.01R
FORT STOCKTON  SUNNY     79  62  56 E6        30.08R
GUAD PASS      SUNNY     74  57  55 NE28      30.25R
HOBBS          SUNNY     77  57  50 N8        30.15R
MARFA          SUNNY     77  57  50 N17       30.20S
MIDLAND AIRPK  SUNNY     80  62  54 NE5       30.09R
MIDLAND INTL   SUNNY     82  62  50 N6        30.07S
ODESSA         SUNNY     81  62  52 NE12      30.09S
PECOS          SUNNY     81  61  50 N12       30.07R
PRESIDIO       FAIR      87  59  39 N10       30.03R
SEMINOLE       CLOUDY    76  60  56 N9        30.13S
SNYDER           N/A     80  68  68 CALM      30.05S
WINK           SUNNY     80  60  50 N15       30.07R
$$
...OTHER STATIONS IN TEXAS...

CITY           SKY/WX    TMP DP  RH WIND       PRES   REMARKS
ABILENE        SUNNY     79  69  71 E5        30.05R
AMARILLO       SUNNY     75  60  59 NW9       30.15R
AUSTIN         CLOUDY    79  75  87 E5        29.96R
BROWNSVILLE    MOSUNNY   85  76  74 S16       29.90R
CORPUS CHRISTI PTSUNNY   84  78  82 SW7       29.91R
DALLAS FTW     MOSUNNY   84  72  67 E6        29.97R
DEL RIO        SUNNY     80  69  69 E5        29.94R
EL PASO        MOSUNNY   77  60  55 N16       30.15R
HOUSTON INT    PTSUNNY   80  76  87 CALM      29.94S
LUBBOCK        MOSUNNY   77  61  57 NW10      30.12S
SAN ANGELO     SUNNY     79  68  69 NE3       30.03R
SAN ANTONIO    CLOUDY    79  73  82 E10       29.97R
WACO           PTSUNNY   79  74  84 NE5       29.97R
WICHITA FALLS  NOT AVBL
$$
...OTHER LOCATIONS IN NEW MEXICO...

CITY           SKY/WX    TMP DP  RH WIND       PRES   REMARKS
ALAMAGORDO     CLOUDY    72  59  64 NW7       30.20R
ALBUQUERQUE    PTSUNNY   71  59  65 N6        30.28S
CANNON AFB     SUNNY     72  63  72 NW12      30.19S
CLOVIS         SUNNY     72  57  60 N9        30.20S
HOLLOMAN AFB   LGT RAIN  72  61  68 N9        30.18R
ROSWELL        MOSUNNY   70  63  78 N8        30.16R
RUIDOSO          N/A     59  57  94 S5        30.38S
SANTA FE       SUNNY     67  56  67 S3        30.34R
TRUTH OR CONSE CLOUDY    72  61  68 NE7       30.23R
TUCUMCARI      CLOUDY    73  64  73 SW10      30.17S
$$




USA.gov is the U.S. government's official web portal to all federal, state and local government web resources and services.